Location: Betz
(49.1556°N, 2.9558°E)
Time: 05:37:36
(UTC+00:00)

Cosmos 1954 Rocket - Pass Details

Date: 18 September 2019
Orbit: 753 x 781 km, 74.0° (Epoch: 22 October)

Event Time Altitude Azimuth Distance (km) Brightness Sun altitude
Rises 20:12:13 0° 335° (NNW) 3,247 8.1 -22.0°
Reaches altitude 10° 20:14:36 10° 334° (NNW) 2,312 7.3 -22.3°
Maximum altitude 20:19:51 77° 249° (WSW) 786 4.0 -23.1°
Enters shadow 20:21:18 48° 175° (S) 992 4.3 -23.3°
